Back to catalog

BRAZILSAT B1

AliveCommunicationsGEO
NORAD 23199·PAYLOAD·🇧🇷 Brazil

Launched Aug 10, 1994 from Guiana Space Centre

Loading…

TLE

FreshSource: Space-Track

Epoch: Sep 14, 2026, 06:37 UTC

1 23199U 94049A   26257.27611764 -.00000171  00000-0  00000-0 0  9996
2 23199  12.8289  25.9685 0006824 188.9570 167.4769  0.99247612 47088

Track BRAZILSAT B1 in real time with AllMySat

Download on the App Store